Weather in Gilyar

Russia / Republic of Dagestan     41°33′25″N   48°15′17″E
temp.,
°C
wind,
m/s
gust,
m/s
humid.,
%
clouds,
%
prec.,
mm/h
press.,
hPa
HPBL,
m
12 may, wed
wed1200:00+6w22850 0.0 101512
03:00+6wnw11840 0.0 101510
06:00+8n11800 0.0 101571
09:00+13ne31660 0.0 1014432
12:00+16ne32665 0.0 1014721
15:00+16ne327121 0.0 1014648
18:00+13ne21866 0.0 1015120
21:00+11sw22798 0.0 101511
13 may, thu
thu1300:00+11sw11615 0.0 101511
03:00+11sw225311 0.0 101413
06:00+15sw11572 0.0 101425
09:00+20ene21522 0.0 1014289
12:00+22ne325812 0.0 1014494
15:00+21ne326410 0.1 1014577
18:00+18ne11859 0.0 101432
21:00+16sw32652 0.0 101516
14 may, fri
fri1400:00+16sw44360 0.0 101529
03:00+16sw44382 0.0 101530
06:00+17sw44522 0.0 101639
09:00+23e224216 0.0 1015434
12:00+24e454732 0.0 1015968
15:00+24ene444912 0.0 1014765
18:00+20n117410 0.1 101516
21:00+17sw336825 0.1 101623
15 may, sat
sat1500:00+17sw445884 0.1 101533
03:00+16sw445688 0.1 101537
06:00+17sw34628 0.0 101547
09:00+22ene22454 0.0 1014603
12:00+24ene33431 0.0 10141013
15:00+23ne324195 0.1 1014888
18:00+19s0162100 0.0 101411
21:00+17sw44624 0.0 101540
16 may, sun
sun1600:00+16sw44555 0.0 101542
03:00+15sw54500 0.0 101446
06:00+16sw44580 0.0 101457
09:00+22e22370 0.0 1013633
12:00+25e55350 0.0 10111451
15:00+23ene45420 0.0 1010695
18:00+20nnw11620 0.0 101011
21:00+17sw55270 0.0 101053